Location: General Nathan Twining Observatory
(34.5931°N, 106.8201°W)
Time: 17:47:38
(UTC-07:00)

Daily predictions for brighter satellites

Satellite Brightness Start Highest point End
(mag) Time Altitude Azimuth Time Altitude Azimuth Time Altitude Azimuth
FENGYUN 3A 3.7 18:13:05 10° SSE 18:18:25 67° ENE 18:23:47 10° N
CZ-2C R/B 4.3 18:15:01 10° N 18:19:24 60° WNW 18:23:44 10° SSW
Cosmos 2227 Rocket 3.2 18:16:36 10° SW 18:22:05 51° WNW 18:27:35 10° N
Shenzhou-11 Module 3.8 18:20:32 10° W 18:23:13 30° SW 18:25:54 10° SSE
Cosmos 1633 2.9 18:21:35 10° SSE 18:24:54 39° E 18:28:16 10° NNE
Cosmos 2237 Rocket 2.3 18:21:17 10° NNW 18:26:56 83° WSW 18:32:33 10° SSE
Cosmos 2233 Rocket 4.2 18:22:18 10° N 18:28:35 82° W 18:34:46 10° S
SJ-6B 4.5 18:26:41 10° E 18:28:38 14° ENE 18:30:36 10° NE
CENTAUR R/B 2.4 18:23:52 10° SSW 18:29:39 81° ESE 18:36:16 10° NNE
H-2A R/B 3.4 18:27:03 10° SE 18:30:39 36° ENE 18:34:14 10° N
SL-16 R/B 2.6 18:26:19 10° N 18:31:40 41° ENE 18:36:58 10° SE
Sich 1 Rocket 4.1 18:30:27 10° SSE 18:34:35 36° E 18:38:41 10° NNE
Lacrosse 5 2.6 18:29:51 10° NW 18:34:48 56° SW 18:39:44 10° SSE
GPS 2-05 Rocket1 4.4 18:32:44 10° SSW 18:35:04 19° SSE 18:37:12 11° ESE
MOS 1 4.3 18:29:49 10° SSE 18:35:28 83° ENE 18:41:10 10° NNW
Cosmos 2297 Rocket 3.4 18:30:27 10° SW 18:35:50 46° WNW 18:41:17 10° N
ERS-2 3.1 18:33:02 10° SE 18:36:10 27° ENE 18:39:18 10° NNE
COSMO-SKYMED 1 3.9 18:36:18 10° N 18:40:25 43° WNW 18:44:30 10° SW
CZ-4 R/B 4.1 18:42:00 10° SSW 18:45:20 24° W 18:48:37 10° NW
Okean 1 4.1 18:42:30 10° NNE 18:46:01 29° E 18:49:30 10° SE
Cosmos 1464 Rocket 4.0 18:42:06 10° N 18:48:08 58° E 18:54:10 10° SSE
Cosmos 158 Rocket 4.1 18:43:20 10° SSW 18:48:13 73° WNW 18:53:06 10° NNE
Meteor 1-14 Rocket 4.4 18:42:30 10° S 18:48:15 87° W 18:54:10 10° N
Meteor 1-20 Rocket 4.2 18:42:49 10° S 18:48:29 78° E 18:54:17 10° NNE
FALCON 9 R/B 4.0 18:42:31 10° W 18:49:01 89° S 19:10:12 16° E
Okean 2 Rocket 4.1 18:45:42 10° SE 18:49:09 23° E 18:52:36 10° NE
CZ-2D R/B 4.5 18:47:40 11° ESE 18:50:28 22° ENE 18:53:28 10° NNE
Cosmos 1812 2.8 18:46:54 10° N 18:50:46 81° W 18:54:38 10° S
Iridium 4 Rocket 3.3 18:46:16 10° N 18:50:51 49° E 18:55:04 10° SSE
Cosmos 1452 Rocket 3.4 18:48:36 10° NNW 18:53:53 82° ENE 18:59:07 10° SSE
Cosmos 1048 Rocket 4.0 18:49:35 10° SSW 18:54:55 82° ESE 19:00:14 10° NNE
SPOT 3 Rocket 3.7 18:52:08 10° S 18:57:19 79° WSW 19:02:33 10° NNW
Cosmos 1072 Rocket 4.4 18:53:45 10° N 19:00:00 82° E 19:06:19 10° S
Cosmos 1602 4.1 18:57:05 10° SSE 19:00:44 40° E 19:04:25 10° NNE
Okean 3 3.6 18:57:39 10° N 19:01:50 74° W 19:05:59 10° S
Cosmos 1674 Rocket 4.2 18:58:51 10° NNW 19:03:06 56° W 19:07:19 10° S
Cosmos 2263 Rocket 3.3 19:00:52 10° SSE 19:04:55 21° E 19:04:55 21° E
OAO 2 Rocket 3.2 19:01:09 10° W 19:06:07 89° S 19:08:56 26° E
Cosmos 1908 Rocket 4.1 19:03:53 10° SSW 19:08:18 63° W 19:12:45 10° N
Cosmos 921 Rocket 3.2 19:06:10 10° N 19:10:35 51° ENE 19:14:54 10° SSE
FREGAT/IRIS 2.5 19:08:29 10° S 19:11:27 86° W 19:14:24 10° NNW
Cosmos 1420 Rocket 4.1 19:08:06 10° NNW 19:13:25 82° WSW 19:18:43 10° SSE
Tiangong 2 1.4 19:10:17 10° WNW 19:13:26 63° SSW 19:14:35 34° SE
Meteor 1-18 Rocket 4.2 19:08:28 10° N 19:14:03 85° W 19:19:36 10° S
Cosmos 1437 Rocket 2.8 19:14:37 10° S 19:18:39 82° W 19:22:46 10° N
Cosmos 2034 Rocket 4.0 19:17:57 10° N 19:24:21 85° E 19:30:42 10° S
Cosmos 2227 4.1 19:20:26 10° SSW 19:26:11 87° ESE 19:31:54 10° NNE
Meteor 2-4 Rocket 4.2 19:21:21 10° N 19:26:39 37° ENE 19:27:29 35° E
Meteor 1-19 Rocket 4.2 19:22:09 10° N 19:27:35 55° E 19:33:01 10° SSE
Cosmos 44 Rocket 3.6 19:22:42 10° NNW 19:27:47 74° WSW 19:32:54 10° SSE
Meteor 1-11 Rocket 3.7 19:23:39 10° S 19:29:02 54° E 19:34:33 10° NNE
ARGOS Delta rocket 3.6 19:24:31 10° NNE 19:29:19 81° E 19:33:50 10° S
SeaSat 1 2.7 19:30:03 41° E 19:31:07 47° ENE 19:35:51 10° NNW
Meteor 1-4 Rocket 3.4 19:28:06 10° S 19:30:11 33° SSE 19:30:11 33° SSE
Cosmos 1816 Rocket 4.4 19:28:40 10° S 19:35:01 84° E 19:41:24 10° N
Cosmos 1634 Rocket 4.3 19:30:54 10° N 19:36:38 39° E 19:36:52 39° E
Gbstr 26 Del rocket 3.2 19:33:11 10° WSW 19:36:50 53° NW 19:37:47 40° N
Cosmos 1975 Rocket 3.0 19:34:24 10° N 19:38:51 85° W 19:43:19 10° S
Envisat 2.8 19:35:22 10° SSE 19:40:26 78° ENE 19:45:31 10° N
HJ-1C 4.4 19:37:24 10° S 19:40:41 48° W 19:44:01 10° NNW
Resurs 01 Rocket 2.9 19:43:36 28° NNE 19:43:36 28° NNE 19:45:55 10° N
USA 215 3.6 19:40:20 14° NE 19:45:56 63° NW 19:52:22 10° WSW
COSMOS 2455 2.7 19:39:59 10° SSW 19:45:57 72° ESE 19:48:53 32° NE
Sakura Rocket 4.4 19:43:45 10° WSW 19:49:22 53° S 19:51:23 41° SE
Thor Agena Rocket 4.1 19:46:39 10° N 19:51:36 55° WNW 19:56:29 10° SSW
Cosmos 494 Rocket 4.0 19:50:01 10° SSW 19:55:13 76° WNW 19:59:19 17° NNE
CZ-4C R/B 3.8 19:50:05 10° N 19:55:56 30° NE 19:55:56 30° NE
Cosmos 1943 4.2 19:51:38 10° N 19:55:02 30° NNE 19:55:02 30° NNE
Cosmos 1110 Rocket 4.0 19:54:42 10° NNW 19:59:34 69° NNE 19:59:34 69° NNE
SJ-6B 4.5 19:59:35 10° SSW 20:02:57 31° W 20:06:24 10° NNW
SL-16 R/B 4.4 20:11:09 10° NW 20:15:26 22° W 20:19:42 10° SSW
USA 267 4.3 20:17:24 30° NNE 20:17:24 30° NNE 20:22:14 10° NNW
Cosmos 1603 4.4 20:28:58 10° NNW 20:34:02 51° W 20:34:02 51° W
Cosmos 2263 Rocket 3.5 20:43:11 10° SW 20:46:47 34° WSW 20:46:47 34° WSW
CZ-3C R/B 3.8 20:54:19 10° SW 21:45:41 - ESE 20:58:15 35° SSW
CZ-4C R/B 4.5 21:38:00 10° NW 21:41:09 28° NW 21:41:09 28° NW
